This is the latest recevied weather packets stored in our database for station/object F4IKI-10. If no packets are shown the sender has not sent any weather packets the latest 10 day(s).
| Time | Temp. | Humidity | Pressure | Rain* | Wind** | Luminosity | Snow |
|---|---|---|---|---|---|---|---|
| 1777711405 | 18.89° C | 65% | 1020.3 hPa | - | - | - | - |
| 1777710505 | 19.44° C | 61% | 1020.2 hPa | - | - | - | - |
| 1777709605 | 20° C | 60% | 1020.1 hPa | - | - | - | - |
| 1777708705 | 20° C | 59% | 1019.9 hPa | - | - | - | - |
| 1777707804 | 20° C | 60% | 1019.7 hPa | - | - | - | - |
| 1777706904 | 20° C | 58% | 1019.9 hPa | - | - | - | - |
| 1777706004 | 20° C | 58% | 1020 hPa | - | - | - | - |
| 1777705104 | 20° C | 57% | 1019.9 hPa | - | - | - | - |
| 1777704204 | 20° C | 58% | 1020 hPa | - | - | - | - |
| 1777703304 | 20° C | 57% | 1020 hPa | - | - | - | - |
| 1777702404 | 20° C | 56% | 1020.2 hPa | - | - | - | - |
| 1777701504 | 20° C | 57% | 1020.2 hPa | - | - | - | - |
| 1777700604 | 20° C | 58% | 1019.9 hPa | - | - | - | - |
| 1777699704 | 20° C | 64% | 1019.8 hPa | - | - | - | - |
| 1777698803 | 20° C | 62% | 1019.9 hPa | - | - | - | - |
| 1777697903 | 20° C | 63% | 1019.5 hPa | - | - | - | - |
| 1777697003 | 20° C | 63% | 1019.7 hPa | - | - | - | - |
| 1777696103 | 20° C | 64% | 1019.7 hPa | - | - | - | - |
| 1777695203 | 20.56° C | 64% | 1019.9 hPa | - | - | - | - |
| 1777694303 | 20.56° C | 63% | 1020.1 hPa | - | - | - | - |
| 1777693403 | 20.56° C | 64% | 1020.2 hPa | - | - | - | - |
| 1777692502 | 20.56° C | 63% | 1020.3 hPa | - | - | - | - |
| 1777691602 | 20.56° C | 64% | 1020.1 hPa | - | - | - | - |
| 1777690702 | 20.56° C | 64% | 1020.2 hPa | - | - | - | - |
| 1777689802 | 20.56° C | 64% | 1020.1 hPa | - | - | - | - |
* Rain since midnight (hover to see other rain measurements)
** Current wind speed in m/s (hover to see current wind gust speed)